Lid_Strength_Index
6 8 9 8 7 8 9 10 10 9 9 10 9 9 8 7 7 8 7 7 7 8 7 7 7 7 6 6 6 7 7 7 6 7 7 7 7 7 6 6 7 7 8 7
8 10 9 9 9 10 10 10 10 9 10 11 9 9 8 7 7 7 7 7 7 8 8 8 7 7 7 7 7 7 7 7 6 6 5 6 6 6 6 6 7 7 8 8
9 10 10 10 10 11 10 10 10 11 10 9 11 10 8 8 8 9 9 7 7 8 8 8 8 8 7 7 7 7 6 6 6 6 5 5 6 6 7 7 7 8 8 8
9 10 11 11 11 10 11 10 11 12 11 14 11 16 9 8 9 9 8 9 8 7 7 7 8 7 7 7 6 6 6 6 6 5 6 7 7 8 7 7 7 8 8 8
10 12 12 11 11 10 11 10 11 11 12 12 11 17 11 9 9 9 8 8 8 7 7 7 7 7 7 6 6 6 6 6 6 6 6 6 7 6 6 7 7 8 8 8
11 10 11 11 11 11 10 11 11 11 11 18 15 13 12 10 9 8 8 9 9 8 8 7 7 7 7 6 6 5 6 7 6 6 6 6 6 7 7 7 8 8 8 9
11 11 12 11 11 10 10 11 16 18 19 17 13 14 11 8 10 10 8 10 9 9 8 8 8 7 7 7 6 6 7 7 7 6 7 6 6 7 7 7 8 9 9 9
12 13 12 12 11 12 11 13 16 20 16 14 14 15 11 11 11 10 9 10 10 9 8 8 7 7 7 7 6 7 7 7 7 7 7 7 7 7 7 7 8 8 9 9
12 13 13 13 11 11 12 13 12 15 15 16 13 11 12 11 12 11 11 10 10 10 9 8 7 7 7 7 6 6 7 7 7 8 8 8 8 8 8 8 8 9 9 9
11 13 13 14 12 12 12 12 14 15 18 17 14 13 12 11 11 11 11 11 10 10 10 9 8 7 7 7 7 7 7 8 8 9 9 9 9 9 9 9 9 9 9 10
11 12 14 13 14 13 14 14 13 13 14 17 17 14 11 11 11 12 12 11 11 11 11 10 9 8 8 7 8 8 8 9 9 9 9 9 9 9 10 10 10 10 10 11
12 12 14 13 16 15 14 13 13 15 16 15 16 15 11 13 14 14 11 11 10 10 10 9 9 8 9 9 9 9 9 9 9 9 9 10 10 10 11 11 11 11 11 11
13 13 16 16 16 15 16 15 15 15 15 16 17 15 12 12 12 13 13 11 10 10 10 10 9 9 9 9 9 9 9 9 9 10 10 10 10 11 11 11 11 11 11 11
11 13 14 16 14 14 16 15 15 14 15 15 15 14 12 11 11 10 9 9 9 9 9 9 9 8 8 8 9 9 10 10 10 10 11 12 12 12 11 11 11 12 11 11
11 14 13 12 11 12 13 13 14 15 13 15 14 14 11 12 13 12 12 11 11 11 11 10 10 10 10 10 10 10 10 11 11 12 11 12 12 12 12 11 11 11 11 11
10 14 14 16 13 12 14 13 13 13 13 13 13 14 12 11 11 11 11 11 11 11 11 11 11 11 11 11 11 11 11 11 12 12 12 12 12 12 12 11 12 12 12 11
13 13 15 17 14 14 17 15 14 12 12 12 15 11 11 12 12 12 12 11 10 10 10 10 10 10 10 10 10 11 12 11 11 12 12 12 12 12 12 12 12 12 12 12
13 13 14 16 15 20 15 13 14 14 14 13 13 12 11 12 11 11 11 11 10 10 10 10 10 10 9 9 10 10 11 11 12 12 13 12 12 12 12 12 12 12 11 11
11 12 15 17 16 15 13 13 14 14 13 11 12 11 11 10 10 9 8 9 8 8 8 9 9 9 9 10 10 11 11 12 12 12 12 12 12 12 12 12 12 11 11 11
12 11 13 14 18 20 14 11 9 11 16 11 11 10 10 10 13 9 8 9 9 8 8 8 8 9 9 10 10 11 11 12 12 12 12 12 12 12 12 12 12 12 11 12
15 14 15 15 16 15 11 10 9 16 14 9 9 9 9 10 8 7 8 8 7 7 7 7 9 10 10 11 11 10 11 12 12 12 12 12 12 12 12 12 11 11 11 11
15 15 16 15 16 18 8 10 12 10 8 8 8 7 8 7 7 7 8 7 8 10 8 8 10 12 15 15 13 12 12 12 12 12 12 11 11 11 11 11 10 10 10 10
16 12 13 13 14 9 7 8 6 7 8 8 7 6 7 8 8 8 8 8 8 9 11 11 11 13 16 15 15 13 12 12 12 12 11 11 11 11 10 10 10 10 9 9
12 11 13 12 11 10 9 8 7 7 8 7 6 6 6 8 8 8 7 8 8 10 12 13 14 15 16 16 16 15 14 12 12 12 12 11 11 10 10 9 9 10 10 9
12 12 12 12 10 9 9 8 8 8 7 7 6 6 6 7 8 7 7 8 9 11 14 15 15 15 15 16 16 16 15 14 13 12 12 11 10 10 10 10 9 9 9 9
10 12 12 13 10 11 10 8 7 8 8 7 7 6 6 6 7 7 7 8 10 13 14 16 16 17 16 17 18 17 18 14 13 12 11 10 10 10 10 10 10 8 8 7